ARIANE 2 DEB, 40788

Orbit data source: Space-Track

ARIANE 2 DEB, 40788 is space debris in HEO originally from a launch on Fri, 27 Jan 1989 UTC launched from the French Guiana (FRGUI). Debris objects in space refer to the collection of defunct objects orbiting the Earth. Examples of debris include non-operational satellites, rocket bodies, and fragments generated from explosions, collisions, or faulty payload assembly.

Loading next visibility...
Identifier
40788, 1989-006CH
Orbit
HEO
Country
Flag of FRFR
Related business
Manufacturer
EADS/LV
Mission
Spacecraft
Bus & Motor
Unknown
Mass
Unknown
Launch date (UTC)
1989-01-27 (37 years ago)
Launch vehicle
Unknown
Launch site
French Guiana (FRGUI)
Object type
Payload
Rocket body
Debris
Shape & HBR
Unknown shape, 0.2 m
Radar Cross Section
Medium (>0.1 m² and <1 m²)

Expand to show TLE details & history
Last TLE update: 6 days ago

TLE from 6 days ago
0 ARIANE 2 DEB
1 40788U 89006CH  26167.62797691  .00000114  00000-0  45291-3 0  9999
2 40788   8.5932 223.7927 6229285 112.0326 322.6920  3.54672841143818
Epoch: 2026-06-16T15:04Z
TLE epoch observation values (Epoch: 2026-06-16T15:04:17.205Z)
Latitude
Longitude
93.00423°
Altitude
8,093.893 km
Speed
5.756 km/s
True Right ascension
14h 55m 53s
True Declination
0° 00' 00"
Sunlit
Object was in daylight at epoch
Visualization orbit readout
Latitude
Unknown
Longitude
Unknown
Altitude
Unknown
Speed
Unknown
Apparent Right ascension
Unknown
Apparent Declination
Unknown
Sunlit
N/A
Visualization observer readout
Local Sidereal Time
21:42:21
Azimuth
Unknown
Elevation
Unknown
Doppler factor
Unknown
Orbital elements
Apogee altitude
23,106.782 km
Perigee altitude
472.394 km
Semi-major axis
18,167.725 km
Eccentricity
0.62293
Inclination
8.5932°
RAAN
223.7927°
Arg. of periapsis
112.0326°
True anomaly
248.03148°
Mean anomaly
322.692°
Eccentric anomaly
288.93145°
Mean motion
0.88632 °/min
Orbital period
406.17 mins
BSTAR
0.00045291
Loading maneuver chart data...
Computing Atmospheric mass density...
Loading historical data...
Loading historical data...
Loading historical data...
Loading historical data...
Loading historical data...
Loading historical data...
Loading historical data...

Documentation

Showing up to 5 results
|